[Date Prev][Date Next][Thread Prev][Thread Next] - [Date Index][Thread Index][Author Index]

2 Line ISS Keps 3-2



ISS
1 25544U 98067A   03061.17221065  .00026184  00000-0  33492-3 0  7403
2 25544  51.6354 197.7347 0011778 264.1868  89.1631 15.58958235244305


----
Via the sarex mailing list at AMSAT.ORG courtesy of AMSAT-NA.
To unsubscribe, send "unsubscribe sarex" to Majordomo@amsat.org



AMSAT Top AMSAT Home